Location: Newark
(52.4787°S, 179.0532°W)
Time: 16:57:03
(UTC+00:00)

Envisat - Pass Details

Date: 27 October 2019
Orbit: 764 x 766 km, 98.1° (Epoch: 21 November)

Event Time Altitude Azimuth Distance (km) Brightness Sun altitude
Rises 15:44:38 0° 77° (ENE) 3,249 7.0 -6.3°
Reaches altitude 10° 15:48:04 10° 101° (E) 2,331 6.9 -5.9°
Maximum altitude 15:50:35 14° 131° (SE) 2,079 6.8 -5.6°
Drops below altitude 10° 15:53:06 10° 160° (SSE) 2,342 6.3 -5.2°
Sets 15:56:33 0° 184° (S) 3,277 6.6 -4.8°
